Regional Weather Roundup
Issued by NWS

Home | Current Version | Previous Version | Text Only | Print | Product List | Glossary Off
Versions: 1 2 3 4 5 6 7 8 9 10 11 12 13 14 15 16 17 18 19 20 21 22 23 24 25 26 27 28 29 30 31 32 33 34 35 36 37 38 39 40 41 42 43 44 45 46 47 48 49 50

000
ASUS43 KDMX 270501
RWRIA

WEATHER ROUNDUP FOR IOWA
NATIONAL WEATHER SERVICE DES MOINES IA
1200 AM CDT SAT MAY 27 2017

NOTE: "FAIR" INDICATES FEW OR NO CLOUDS BELOW 12,000 FEET WITH NO
SIGNIFICANT WEATHER AND/OR OBSTRUCTIONS TO VISIBILITY.

* - THESE STATIONS ARE NOT NWS STATIONS...THUS NOT UNDER NWS
QUALITY CONTROL.  THEY ALSO DO NOT REPORT WEATHER SUCH
AS PRECIPITATION OR FOG.

IAZ001>003-012>014-020>022-031>034-043>046-270600-
   NORTHWEST IOWA

CITY           SKY/WX    TMP DP  RH WIND       PRES   REMARKS
CARROLL *      CLEAR     61  48  63 NW6       29.87S
CHEROKEE *     CLEAR     57  45  64 NE6       29.88S
DENISON *      CLEAR     61  46  59 N5        29.90S
LE MARS *      CLEAR     54  46  76 CALM      29.90R
ORANGE CITY *  CLEAR     63  45  51 CALM      29.89S
SHELDON *      CLEAR     54  43  66 CALM      29.88S
SIOUX CITY     CLEAR     59  45  59 N5        29.88S
SPENCER        CLEAR     54  46  74 NW6       29.88F
STORM LAKE *   CLEAR     59  43  55 N8        29.89S
$$

IAZ055>058-069>071-079>083-090>094-270600-
   SOUTHWEST IOWA

CITY           SKY/WX    TMP DP  RH WIND       PRES   REMARKS
ATLANTIC *     CLOUDY    61  50  67 N3        29.86S
AUDUBON *      CLEAR     55  52  88 CALM      29.89S
CLARINDA *     CLOUDY    63  57  82 CALM      29.87S
COUNCIL BLFS * CLOUDY    63  52  67 N9        29.86S
CRESTON *      CLEAR     64  55  72 CALM      29.88S
HARLAN  *      CLEAR     63  48  59 N5        29.90S
LAMONI         CLEAR     69  61  75 E5        29.86S
RED OAK *      PTCLDY    64  52  63 CALM      29.86S
SHENANDOAH *   CLOUDY    64  54  68 NE3       29.85S
$$

IAZ047>049-059>061-072>074-084-270600-
   CENTRAL IOWA

CITY           SKY/WX    TMP DP  RH WIND       PRES   REMARKS
AMES           CLEAR     60  59  96 CALM      29.86S
ANKENY *       PTCLDY    61  59  94 CALM      29.87S
BOONE *        CLEAR     64  64 100 CALM      29.86F
CHARITON *     CLEAR     64  63  94 SE7       29.87S
DES MOINES     PTCLDY    68  63  84 E5        29.85F
GRINNELL*      CLEAR     60  58  92 CALM      29.89R
KNOXVILLE *    CLEAR     63  61  94 SE6       29.86R
MARSHALLTOWN   CLEAR     61  59  93 S6        29.86S
NEWTON *       CLEAR     61  59  94 SE6       29.87R
PELLA *        CLEAR     62  60  93 SE3       29.88S
PERRY *          N/A     61  50  67 NE5       29.86F
$$

IAZ004>006-015-016-023>025-035-036-270600-
   NORTH CENTRAL IOWA

CITY           SKY/WX    TMP DP  RH WIND       PRES   REMARKS
ALGONA *       CLEAR     61  46  59 NW6       29.88S
CLARION *      CLEAR     64  48  55 N6        29.88R
ESTHERVILLE    CLEAR     55  49  80 NW6       29.88S
FORT DODGE *   PTCLDY    57  46  67 CALM      29.87F
MASON CITY     CLEAR     60  55  83 CALM      29.89R
FOREST CITY *    N/A     55  36  47 CALM      29.88R
WEBSTER CITY * CLEAR     64  46  52 NE6       29.86R
$$

IAZ007>011-017>019-026>030-037>042-050>054-066-270600-
   NORTHEAST IOWA

CITY           SKY/WX    TMP DP  RH WIND       PRES   REMARKS
CEDAR RAPIDS   FOG       58  58 100 S3        29.87R VSB 3/4
CHARLES CITY * CLEAR     61  61 100 SW6       29.88R
CLINTON *      CLOUDY    60  57  89 E6        29.89R
DECORAH *      MOCLDY    59  57  94 S5        29.86R
DUBUQUE        CLEAR     57  55  93 CALM      29.88S
MONTICELLO *   FOG       55  55 100 CALM      29.87S VSB<1/4
OELWEIN *      CLEAR     57  57 100 S7        29.87S
WATERLOO       CLEAR     58  56  93 S5        29.86R
$$

IAZ064-065-067-068-078-270600-
   EAST CENTRAL IOWA

CITY           SKY/WX    TMP DP  RH WIND       PRES   REMARKS
DAVENPORT      CLOUDY    60  56  86 NE6       29.88R
IOWA CITY      FOG       57  56  96 CALM      29.89R VSB 1/2
MT. PLEASANT * CLEAR     59  59 100 CALM      29.88R FOG
MUSCATINE *    CLEAR     59  57  94 CALM      29.88S FOG
QUAD CITIES    CLOUDY    62  57  83 NE6       29.87R
$$

IAZ062-063-075>077-085>089-095>099-270600-
   SOUTHEAST IOWA

CITY           SKY/WX    TMP DP  RH WIND       PRES   REMARKS
BURLINGTON     CLEAR     60  59  96 N3        29.86S
FAIRFIELD *    CLEAR     59  57  94 CALM      29.87S FOG
FORT MADISON * CLEAR     61  59  94 CALM      29.88R
KEOKUK *       CLEAR     61  61 100 N3        29.86S
OSKALOOSA *      N/A     60  58  94 E5        29.88R
OTTUMWA        CLEAR     61  60  97 E5        29.87R
WASHINGTON *   FOG       57  57 100 NE3       29.89R VSB 1/2
$$

ABBREVIATIONS USED IN REMARKS
   TC - TEMPERATURES IN CELSIUS
  WCI - WIND CHILL INDEX
   HX - HEAT INDEX
  VSB - VISIBILITY
$$




USA.gov is the U.S. government's official web portal to all federal, state and local government web resources and services.